Location: Pella
(41.4080°N, 92.9160°W)
Time: 14:57:19
(UTC-05:00)

ASTRO E2 - Visible Passes

Search period start: 20 September 2017 00:00
Search period end: 30 September 2017 00:00
Orbit: 514 x 521 km, 31.4° (Epoch: 19 September)

Date Brightness Start Highest point End Pass type
(mag) Time Alt. Az. Time Alt. Az. Time Alt. Az.
24 Sep 5.3 05:24:37 10° S 05:25:16 10° SSE 05:25:55 10° SSE visible
25 Sep 5.2 05:07:50 11° SSE 05:08:01 12° SSE 05:09:24 10° SE visible
26 Sep 5.3 04:51:41 12° SSE 04:51:41 12° SSE 04:52:33 10° SE visible
26 Sep 4.7 06:27:40 10° SW 06:30:34 19° S 06:33:30 10° SE visible
27 Sep 5.6 04:35:31 10° SE 04:35:31 10° SE 04:35:35 10° SE visible
27 Sep 4.6 06:10:27 10° SW 06:13:20 19° S 06:16:17 10° SE visible
28 Sep 4.5 05:54:17 15° SW 05:56:06 19° S 05:59:02 10° SE visible
29 Sep 4.4 05:38:07 18° SSW 05:38:51 19° S 05:41:46 10° SE visible
